Weather History for KFET - September, 2013

Change the Weather History Date:

Saturday, September 28, 2013

  Actual Average Record
Temperature  
Mean Temperature 63 °F -  
Max Temperature 75 °F 75 °F 101 °F (1953)
Min Temperature 48 °F 48 °F 28 °F (1951)
Degree Days  
Heating Degree Days 2    
Growing Degree Days 13 (Base 50)    
Moisture  
Dew Point 51 °F    
Average Humidity 69    
Maximum Humidity 100    
Minimum Humidity 37    
Precipitation  
Precipitation 0.24 in - - ()
Sea Level Pressure  
Sea Level Pressure 29.90 in    
Wind  
Wind Speed 14 mph (WNW)    
Max Wind Speed 22 mph    
Max Gust Speed 30 mph    
Visibility 10 miles    
Events Rain , Thunderstorm    
Averages and records for this station are not official NWS values.
T = Trace of Precipitation, MM = Missing Value Source: NWS Daily Summary

Daily Weather History Graph

Daily Weather History Graph

Search for Another Location

Airport or City:

Trip Planner

Search our weather history database for the weather conditions in past years. The results will help you decide how hot, cold, wet, or windy it might be!

Date:

Astronomy

Sep. 28, 2013 Rise Set
Actual Time 7:20 AM CDT 7:12 PM CDT
Civil Twilight 6:52 AM CDT 7:40 PM CDT
Nautical Twilight 6:20 AM CDT 8:12 PM CDT
Astronomical Twilight 5:47 AM CDT 8:44 PM CDT
Moon 1:04 AM CDT (9/28) 3:35 PM CDT (9/28)
Length of Visible Light 12h 47m
Length of Day
11h 52m
Waning Crescent, 36% of the Moon is Illuminated
Sep 28
Waning Crescent
Oct 4
New
Oct 11
First Quarter
Oct 18
Full
Oct 26
Last Quarter

Hourly Weather History & Observations

Time (CDT) Temp. Dew Point Humidity Pressure Visibility Wind Dir Wind Speed Gust Speed Precip Events Conditions
12:15 AM 75.7 °F 58.5 °F 55% 29.72 in 10.0 mi SSE 21.9 mph 26.5 mph N/A   Clear
12:35 AM 76.1 °F 58.8 °F 55% 29.71 in 10.0 mi SE 19.6 mph 29.9 mph N/A   Clear
12:55 AM 75.9 °F 59.2 °F 56% 29.70 in 10.0 mi SSE 19.6 mph 27.6 mph N/A   Clear
1:15 AM 75.6 °F 59.0 °F 56% 29.69 in 10.0 mi SSE 19.6 mph 28.8 mph N/A   Scattered Clouds
1:35 AM 75.4 °F 59.2 °F 57% 29.69 in 10.0 mi SSE 19.6 mph 27.6 mph N/A   Scattered Clouds
1:55 AM 75.2 °F 59.4 °F 58% 29.70 in 10.0 mi SSE 17.3 mph 26.5 mph N/A   Mostly Cloudy
2:15 AM 74.7 °F 59.5 °F 59% 29.70 in 10.0 mi SSE 16.1 mph 28.8 mph N/A   Mostly Cloudy
2:35 AM 74.3 °F 59.9 °F 61% 29.69 in 10.0 mi SSE 13.8 mph 25.3 mph N/A   Mostly Cloudy
2:55 AM 74.3 °F 59.9 °F 61% 29.69 in 10.0 mi SSE 17.3 mph 20.7 mph N/A   Mostly Cloudy
3:15 AM 73.2 °F 60.3 °F 64% 29.70 in 10.0 mi South 16.1 mph 23.0 mph N/A   Mostly Cloudy
3:35 AM 73.4 °F 60.1 °F 63% 29.69 in 10.0 mi South 12.7 mph 19.6 mph N/A   Mostly Cloudy
3:55 AM 72.5 °F 60.8 °F 67% 29.69 in 10.0 mi SW 6.9 mph - N/A Rain Rain
4:15 AM 68.2 °F 63.1 °F 84% 29.73 in 10.0 mi West 8.1 mph 17.3 mph N/A Thunderstorm Overcast
4:35 AM 65.8 °F 62.8 °F 90% 29.73 in 10.0 mi WNW 13.8 mph - N/A Rain Light Rain
4:55 AM 61.9 °F 61.2 °F 97% 29.74 in 3.0 mi WNW 11.5 mph - 0.12 in Rain Heavy Rain
5:15 AM 59.4 °F 59.4 °F 100% 29.78 in 5.0 mi West 9.2 mph - 0.04 in Rain Rain
5:35 AM 57.4 °F 57.4 °F 100% 29.76 in 5.0 mi NW 10.4 mph - 0.10 in Rain Rain
5:55 AM 56.7 °F 56.7 °F 100% 29.73 in 10.0 mi WNW 10.4 mph 16.1 mph 0.11 in Rain Light Rain
6:15 AM 56.7 °F 56.7 °F 100% 29.77 in 10.0 mi WNW 11.5 mph - N/A   Overcast
6:35 AM 55.8 °F 55.4 °F 99% 29.79 in 10.0 mi WNW 16.1 mph 21.9 mph N/A   Overcast
6:55 AM 55.0 °F 53.8 °F 96% 29.82 in 10.0 mi WNW 17.3 mph 24.2 mph N/A   Overcast
7:15 AM 55.0 °F 53.6 °F 95% 29.84 in 10.0 mi WNW 15.0 mph 20.7 mph N/A   Overcast
7:35 AM 54.7 °F 53.2 °F 95% 29.85 in 10.0 mi WNW 17.3 mph 21.9 mph N/A   Overcast
7:55 AM 54.5 °F 53.2 °F 96% 29.86 in 10.0 mi WNW 12.7 mph 16.1 mph N/A   Overcast
8:15 AM 54.5 °F 53.6 °F 97% 29.87 in 10.0 mi WNW 13.8 mph - N/A   Overcast
8:35 AM 53.6 °F 53.1 °F 98% 29.89 in 2.0 mi WNW 16.1 mph - N/A   Light Drizzle
8:55 AM 53.6 °F 52.9 °F 97% 29.89 in 3.0 mi WNW 13.8 mph 18.4 mph N/A   Overcast
9:15 AM 54.0 °F 52.5 °F 95% 29.90 in 10.0 mi WNW 18.4 mph 21.9 mph N/A   Overcast
9:35 AM 53.8 °F 51.3 °F 91% 29.92 in 10.0 mi WNW 20.7 mph 26.5 mph 0.01 in   Overcast
9:55 AM 54.1 °F 51.6 °F 91% 29.92 in 10.0 mi WNW 16.1 mph 21.9 mph 0.01 in   Overcast
10:15 AM 55.4 °F 51.1 °F 85% 29.92 in 10.0 mi NW 11.5 mph 19.6 mph N/A   Scattered Clouds
10:35 AM 56.7 °F 49.5 °F 77% 29.92 in 10.0 mi WNW 16.1 mph 21.9 mph N/A   Clear
10:55 AM 58.5 °F 49.6 °F 72% 29.94 in 10.0 mi WNW 17.3 mph 25.3 mph N/A   Clear
11:15 AM 60.3 °F 48.9 °F 66% 29.94 in 10.0 mi West 18.4 mph 24.2 mph N/A   Clear
11:35 AM 60.4 °F 48.6 °F 65% 29.96 in 10.0 mi West 16.1 mph - N/A   Clear
11:55 AM 62.1 °F 49.3 °F 63% 29.96 in 10.0 mi WNW 11.5 mph 17.3 mph N/A   Clear
12:15 PM 59.5 °F 47.7 °F 65% 29.97 in 10.0 mi WNW 12.7 mph 19.6 mph N/A   Scattered Clouds
12:35 PM 61.7 °F 47.1 °F 59% 29.97 in 10.0 mi WNW 12.7 mph 19.6 mph N/A   Clear
12:55 PM 63.3 °F 47.3 °F 56% 29.98 in 10.0 mi WNW 17.3 mph 20.7 mph N/A   Clear
1:15 PM 64.6 °F 46.6 °F 52% 29.98 in 10.0 mi West 16.1 mph 19.6 mph N/A   Scattered Clouds
1:35 PM 65.7 °F 45.7 °F 48% 29.98 in 10.0 mi WNW 18.4 mph 26.5 mph N/A   Clear
1:55 PM 66.0 °F 45.7 °F 48% 29.97 in 10.0 mi WNW 15.0 mph 27.6 mph N/A   Clear
2:15 PM 66.4 °F 45.0 °F 46% 29.97 in 10.0 mi West 16.1 mph 20.7 mph N/A   Clear
2:35 PM 66.7 °F 44.2 °F 44% 29.97 in 10.0 mi WNW 12.7 mph 21.9 mph N/A   Clear
2:55 PM 68.0 °F 43.3 °F 41% 29.97 in 10.0 mi WNW 15.0 mph 21.9 mph N/A   Clear
3:15 PM 68.7 °F 43.0 °F 39% 29.98 in 10.0 mi WNW 15.0 mph 23.0 mph N/A   Clear
3:35 PM 68.2 °F 42.1 °F 39% 29.98 in 10.0 mi WNW 17.3 mph 21.9 mph N/A   Clear
3:55 PM 68.9 °F 42.3 °F 38% 29.98 in 10.0 mi WNW 11.5 mph 20.7 mph N/A   Clear
4:15 PM 68.9 °F 42.4 °F 38% 29.98 in 10.0 mi WNW 16.1 mph - N/A   Clear
4:35 PM 69.3 °F 42.4 °F 38% 29.99 in 10.0 mi NW 13.8 mph 20.7 mph N/A   Clear
4:55 PM 68.9 °F 42.1 °F 38% 29.99 in 10.0 mi WNW 15.0 mph - N/A   Clear
5:15 PM 68.9 °F 41.5 °F 37% 29.99 in 10.0 mi WNW 15.0 mph - N/A   Clear
5:35 PM 68.7 °F 41.7 °F 37% 29.99 in 10.0 mi WNW 10.4 mph - N/A   Clear
5:55 PM 68.0 °F 41.4 °F 38% 30.00 in 10.0 mi WNW 12.7 mph - N/A   Clear
6:15 PM 67.5 °F 40.8 °F 38% 30.01 in 10.0 mi WNW 9.2 mph 17.3 mph N/A   Clear
6:35 PM 66.4 °F 41.5 °F 40% 30.01 in 10.0 mi NW 5.8 mph - N/A   Clear
6:55 PM 64.2 °F 42.4 °F 45% 30.01 in 10.0 mi NW 4.6 mph - N/A   Clear
7:15 PM 62.2 °F 42.8 °F 49% 30.02 in 10.0 mi Calm Calm - N/A   Clear
7:35 PM 60.4 °F 43.7 °F 54% 30.02 in 10.0 mi Calm Calm - N/A   Clear
7:55 PM 58.8 °F 44.1 °F 58% 30.03 in 10.0 mi Calm Calm - N/A   Clear
8:15 PM 57.0 °F 46.8 °F 69% 30.03 in 10.0 mi Calm Calm - N/A   Clear
8:35 PM 55.2 °F 46.6 °F 73% 30.03 in 10.0 mi Calm Calm - N/A   Clear
8:55 PM 54.5 °F 47.8 °F 78% 30.04 in 10.0 mi Calm Calm - N/A   Clear
9:15 PM 53.2 °F 48.9 °F 85% 30.04 in 10.0 mi Calm Calm - N/A   Clear
9:35 PM 52.9 °F 49.5 °F 88% 30.05 in 10.0 mi Calm Calm - N/A   Clear
9:55 PM 53.6 °F 51.3 °F 92% 30.05 in 10.0 mi Calm Calm - N/A   Clear
10:15 PM 53.4 °F 50.5 °F 90% 30.05 in 10.0 mi Calm Calm - N/A   Clear
10:35 PM 53.4 °F 50.9 °F 91% 30.06 in 10.0 mi Calm Calm - N/A   Clear
10:55 PM 51.8 °F 50.5 °F 95% 30.06 in 10.0 mi Calm Calm - N/A   Clear
11:15 PM 50.5 °F 49.3 °F 95% 30.06 in 10.0 mi Calm Calm - N/A   Clear
11:35 PM 50.5 °F 49.5 °F 96% 30.06 in 10.0 mi Calm Calm - N/A   Clear
11:55 PM 48.6 °F 47.5 °F 96% 30.06 in 10.0 mi Calm Calm - N/A   Clear